SCP
0 0 0 0 0 0 0 0 0 0 0 0 0 0 -0 -0 -0 -0 0 -0 0 0 0 0 0 -0 -0 0 0 -0 -0 -0 -0 0 0 0 0 0 0 0 0 0 0 0
0 0 0 0 0 0 0 0 0 0 0 0 0 -0 -0 0 -0 -0 0 0 -0 -0 0 0 0 0 -0 -0 0 -0 -0 -0 -0 0 0 0 0 0 0 0 0 0 0 0
0 0 0 0 0 0 0 0 0 0 0 0 0 -0 0 -0 -0 -0 -0 0 -0 0 0 0 -0 0 -0 -0 0 0 -0 -0 -0 0 0 0 0 0 0 0 0 0 0 0
0 0 0 0 0 0 0 0 0 0 0 0 -0 -0 0 -0 -0 0 -0 -0 0 -0 0 -0 -0 -0 0 -0 0 0 -0 -0 0 0 0 0 0 0 0 0 0 0 0 0
0 0 0 0 0 0 0 0 0 0 0 0 -0 -0 0 -0 -0 -0 -0 0 -0 -0 0 -0 -0 -0 -0 0 0 0 -0 0 0 0 0 0 0 0 0 0 0 0 0 0
0 0 0 0 0 0 0 0 0 0 0 0 -0 -0 -0 -0 -0 0 -0 -0 -0 0 -0 -0 0 0 0 0 0 0 0 0 0 0 0 0 0 0 0 0 0 0 0 0
0 0 0 0 0 0 0 0 0 0 0 0 -0 -0 -0 -0 -0 -0 -0 -0 0 0 -0 -0 -0 0 0 0 0 0 0 0 0 0 0 0 0 0 0 0 0 0 0 -0
0 0 0 0 0 0 0 0 0 0 0 -0 -0 -0 -0 -0 -0 -0 -0 0 0 -0 -0 0 0 0 0 0 0 -0 0 0 0 0 0 0 0 0 0 0 0 0 0 0
0 0 0 0 0 0 0 0 0 0 0 0 0 -0 -0 -0 0 0 0 0 -0 0 0 0 0 0 0 0 0 0 0 0 0 0 0 0 0 0 0 0 0 0 0 -0
0 0 -0 -0 0 0 0 0 0 0 0 0 0 -0 0 0 0 0 0 0 0 0 0 0 0 0 0 0 0 0 0 0 0 0 0 0 0 0 0 0 0 0 0 -0
0 -0 -0 0 0 0 0 0 0 0 0 -0 -0 0 0 0 0 0 0 0 0 0 0 0 0 0 0 0 0 0 0 0 0 0 0 0 0 0 0 0 0 0 -0 0
0 -0 -0 -0 0 0 0 0 0 0 0 -0 -0 -0 -0 -0 -0 0 0 0 0 0 0 0 0 0 0 0 0 0 0 0 0 0 0 0 0 0 0 0 0 0 -0 0
-0 -0 -0 -0 0 0 0 0 0 0 0 0 0 0 0 0 0 0 0 0 0 0 0 0 0 0 0 0 0 0 0 0 0 0 0 0 0 0 0 0 0 0 0 0
0 0 -0 0 -0 -0 -0 0 0 0 -0 0 -0 0 -0 0 0 0 0 0 0 0 0 0 0 0 0 0 0 0 0 0 0 0 0 0 0 0 0 0 0 0 0 0
0 -0 -0 -0 -0 -0 -0 0 0 0 -0 -0 -0 -0 -0 0 0 -0 0 0 0 0 0 0 0 0 0 0 0 0 0 0 0 0 0 0 0 0 0 -0 -0 0 -0 -0
-0 -0 -0 -0 -0 0 0 -0 0 0 -0 0 -0 -0 -0 -0 -0 0 0 0 0 0 0 0 0 0 0 0 0 0 0 0 0 0 0 0 0 0 0 -0 0 -0 -0 -0
-0 0 -0 -0 -0 0 -0 -0 0 0 -0 -0 -0 -0 -0 -0 0 0 0 0 0 0 0 0 0 0 0 0 0 0 0 0 0 0 0 0 0 0 0 -0 -0 -0 -0 -0
0 -0 -0 0 0 -0 -0 -0 -0 -0 -0 -0 0 -0 -0 -0 -0 0 0 0 0 0 0 0 0 0 0 0 0 -0 0 0 0 0 0 0 0 0 0 -0 -0 -0 -0 -0
-0 -0 0 0 0 -0 -0 -0 -0 0 0 -0 -0 -0 -0 -0 0 0 0 0 0 0 0 0 0 0 0 0 -0 0 -0 -0 0 -0 -0 -0 -0 -0 -0 -0 -0 -0 -0 -0
-0 0 0 0 -0 0 0 0 -0 -0 0 0 0 0 -0 0 0 0 0 0 0 0 0 0 0 0 0 0 0 -0 0 -0 -0 -0 0 0 -0 -0 -0 -0 -0 -0 -0 -0
0 0 0 -0 0 -0 0 0 -0 -0 -0 -0 -0 -0 -0 0 0 0 0 0 0 0 0 0 0 0 0 0 0 0 0 -0 -0 0 -0 -0 -0 -0 -0 -0 -0 -0 -0 -0
0 0 0 0 0 0 0 0 0 -0 -0 0 0 -0 -0 0 -0 0 0 0 0 0 0 0 0 0 -0 0 0 0 -0 -0 -0 -0 -0 -0 -0 -0 -0 -0 -0 -0 -0 -0
-0 0 0 0 0 0 0 0 0 0 0 0 0 0 0 -0 0 0 0 0 0 0 0 0 0 0 0 0 0 0 0 -0 -0 -0 -0 -0 -0 -0 -0 -0 -0 -0 -0 0
-0 0 0 0 0 0 0 0 0 -0 -0 -0 0 0 0 0 -0 0 0 0 0 0 0 0 0 0 0 0 0 0 0 -0 -0 -0 -0 -0 -0 0 0 0 -0 -0 -0 -0
-0 0 0 0 0 -0 0 -0 -0 -0 -0 0 0 -0 -0 0 0 0 0 0 0 0 0 0 0 0 0 0 0 0 0 -0 -0 -0 -0 -0 0 0 0 0 0 -0 -0 -0
-0 0 0 0 0 0 -0 0 -0 -0 -0 0 -0 0 0 0 0 0 0 0 0 0 0 0 0 0 0 0 0 0 0 0 0 0 -0 -0 -0 -0 -0 -0 -0 -0 -0 -0
0 0 0 0 0 -0 -0 -0 -0 0 -0 0 -0 -0 0 0 -0 0 0 0 0 0 0 0 0 0 0 0 0 0 0 0 0 0 -0 -0 -0 -0 -0 0 0 0 0 -0
Wind_Speed_500mb
62 65 63 60 66 73 77 30 10 35 53 11 12 10 29 42 29 32 22 17 10 9 5 11 7 10 10 12 10 12 13 6 9 22 10 34 27 34 11 22 11 4 8 8
59 60 59 58 62 64 72 44 14 24 33 9 12 14 31 29 12 30 12 13 9 14 8 9 9 8 15 33 17 8 12 2 4 9 8 6 34 33 17 13 9 13 10 8
54 56 57 55 59 61 57 21 9 16 17 30 11 26 19 25 35 26 29 11 18 13 8 8 12 15 12 38 9 12 11 8 10 13 4 13 35 18 38 14 8 12 14 14
52 52 55 52 53 56 38 16 7 7 10 20 28 24 15 36 23 12 23 7 17 27 11 14 8 6 19 17 12 4 3 5 14 19 14 29 31 36 24 33 21 10 17 22
49 53 55 47 47 55 26 15 15 12 29 26 25 18 10 30 38 20 21 18 44 40 20 18 37 28 9 10 17 7 1 5 5 5 11 36 25 26 19 13 16 9 25 6
49 50 50 50 41 46 23 26 25 20 19 12 18 12 30 44 40 26 35 40 41 33 31 27 38 47 31 30 18 7 7 2 4 5 15 29 18 28 26 10 9 18 14 14
44 43 49 49 41 34 43 38 33 14 12 14 21 43 41 45 44 41 59 59 26 24 64 78 44 39 34 28 29 22 5 4 1 8 18 7 3 13 18 18 10 15 14 42
43 39 43 45 42 38 41 38 30 10 13 31 35 32 45 54 56 36 44 56 58 75 34 7 5 4 6 15 23 25 12 6 7 8 6 12 11 11 13 37 4 14 24 30
41 43 38 43 43 38 39 40 36 30 15 6 48 41 44 29 27 17 29 64 54 20 5 5 4 2 5 5 6 17 15 17 10 5 9 6 6 10 18 12 3 14 27 43
46 44 37 40 46 40 36 36 35 33 19 41 21 28 22 22 17 13 28 27 19 17 6 4 4 1 4 4 2 5 5 4 5 5 8 7 14 6 6 10 12 31 40 64
45 40 39 41 45 36 33 36 24 24 28 72 41 35 42 51 45 12 42 23 3 6 8 6 6 5 5 4 4 8 7 5 6 5 9 6 19 5 9 7 40 49 45 54
44 42 39 37 38 37 37 38 32 42 43 78 81 57 40 42 50 43 14 18 23 8 5 4 7 5 6 7 3 9 9 5 6 10 6 12 19 18 29 38 64 42 70 68
47 43 42 36 34 35 37 40 35 40 28 56 20 31 52 34 31 31 15 15 35 19 41 5 5 6 7 7 8 5 9 9 8 6 19 23 42 57 57 59 71 70 78 84
43 46 45 42 34 36 35 34 27 22 22 11 26 59 36 25 41 45 34 41 47 49 42 4 3 3 9 8 13 13 8 9 11 21 22 44 51 52 70 77 80 76 73 83
42 44 44 41 33 32 35 26 16 14 18 10 36 65 34 53 55 33 21 33 33 25 7 4 5 5 8 3 6 11 13 6 6 7 22 36 33 46 65 76 74 79 86 83
42 44 40 35 30 28 17 6 5 14 23 14 8 27 38 65 45 32 28 37 22 10 7 6 12 8 8 7 7 27 33 47 19 16 55 63 56 54 58 85 74 76 81 77
41 43 34 31 20 14 4 2 12 20 26 9 10 12 18 49 39 27 32 31 23 19 12 15 12 24 18 7 8 15 46 60 61 56 64 47 42 49 67 81 77 73 71 64
44 39 27 17 10 8 2 5 12 19 12 8 5 10 20 31 21 18 30 26 19 30 13 21 9 15 15 11 16 33 49 49 37 32 57 68 64 67 69 69 68 69 64 57
39 28 13 7 2 5 6 10 12 9 6 6 5 5 8 27 16 14 20 15 8 16 7 5 9 8 11 9 19 31 14 39 56 60 64 63 65 64 60 55 50 56 52 47
30 13 4 3 8 26 12 1 2 3 5 7 6 6 7 17 12 10 21 11 3 7 6 13 8 6 24 23 15 21 51 69 68 72 51 60 59 56 51 47 47 49 47 44
27 19 8 19 15 8 4 3 1 3 5 8 9 9 7 7 5 6 12 4 6 6 8 6 6 8 13 20 14 30 43 45 28 48 52 47 50 49 49 48 44 42 40 40
27 18 17 15 7 3 3 3 4 1 5 8 7 14 12 9 6 3 8 6 5 5 9 6 5 6 34 11 24 37 37 23 44 46 47 47 45 44 44 42 41 40 39 38
9 4 6 4 2 10 5 7 3 5 12 8 21 11 10 7 7 3 5 9 2 6 7 3 4 19 26 10 24 28 26 41 48 46 48 48 46 41 41 43 39 39 38 35
4 5 9 3 4 1 4 4 5 10 14 30 27 12 4 8 10 2 5 4 5 6 6 4 3 20 15 6 25 30 33 42 45 47 47 46 45 43 38 35 35 36 37 34
3 2 5 3 6 12 12 15 15 14 21 25 18 8 5 3 4 5 5 7 6 3 2 4 23 17 3 20 32 35 39 43 44 48 46 46 43 40 39 31 30 29 34 34
3 6 5 7 7 9 8 9 18 8 24 17 3 5 6 5 2 6 6 3 2 4 4 20 16 2 16 30 35 35 35 41 40 41 39 40 38 38 37 34 28 28 28 30
5 7 11 18 20 20 21 13 11 18 15 3 3 7 2 5 5 4 2 0 4 4 10 18 9 11 23 34 38 35 29 33 37 37 39 38 38 35 36 36 31 26 29 29
Wind_Direction_500mb
351 347 347 352 352 349 353 350 320 356 357 49 326 339 312 313 296 321 302 270 294 267 282 287 260 258 254 278 154 170 200 197 214 240 195 198 198 176 135 184 204 137 131 256
350 355 356 356 353 357 346 333 284 3 2 22 339 310 314 302 306 319 313 300 337 333 287 304 263 287 288 301 236 191 177 135 225 190 90 164 191 179 176 118 107 189 127 247
348 352 353 356 352 354 353 342 327 337 340 345 322 322 320 325 321 314 325 286 301 327 315 229 285 302 318 331 306 166 159 161 182 279 0 112 180 167 198 150 110 151 188 159
347 353 349 348 351 350 7 356 320 321 314 328 314 306 286 323 331 332 310 273 328 324 302 297 254 325 321 302 271 169 165 222 212 254 291 160 168 170 150 186 185 155 172 166
349 349 346 343 348 350 8 350 322 298 301 294 310 307 314 318 326 320 307 303 309 311 281 284 290 286 268 284 358 216 214 288 334 306 242 165 173 188 172 143 152 111 161 150
348 348 354 347 346 354 346 326 321 293 296 304 311 308 315 312 319 299 289 297 302 295 289 279 279 273 275 274 286 292 308 341 317 210 187 133 142 180 194 147 136 128 155 194
348 353 350 348 340 345 337 330 309 290 297 300 302 303 309 312 309 294 294 299 297 277 299 295 277 250 246 242 250 238 255 109 197 189 153 125 126 140 212 130 66 108 95 156
347 347 346 347 343 341 332 332 322 279 289 301 302 318 315 309 305 295 291 301 298 302 299 279 274 159 187 230 231 231 149 155 242 139 100 103 81 151 152 147 64 110 130 135
338 342 335 341 338 334 327 330 335 296 290 266 315 307 304 304 314 303 300 311 319 323 284 296 282 168 192 234 230 167 154 222 274 81 81 96 183 150 117 95 116 143 147 137
335 337 338 341 338 332 325 325 328 305 269 292 293 301 298 293 292 282 299 325 322 343 339 301 305 328 342 294 326 229 246 125 124 86 97 72 27 24 131 125 203 147 160 142
336 339 336 336 334 334 329 321 319 313 288 293 281 288 288 289 287 283 299 319 348 312 347 334 325 304 13 45 347 291 60 77 34 46 81 103 9 347 158 161 109 127 117 120
332 333 330 329 334 332 321 313 323 318 287 279 300 299 290 280 290 278 280 277 289 274 312 298 299 315 315 223 32 24 46 49 83 48 58 345 20 76 103 129 121 119 124 126
330 330 325 326 325 324 318 314 320 321 292 306 300 315 336 331 318 312 269 307 314 300 315 239 245 300 322 10 28 75 58 36 68 114 25 59 65 81 95 116 114 124 129 127
327 329 327 326 318 314 308 305 322 329 303 293 293 320 332 336 332 323 313 299 323 317 308 304 342 325 350 16 60 66 3 37 81 89 89 70 60 83 100 103 113 114 117 127
330 330 327 326 318 310 307 301 300 268 353 289 294 316 340 348 346 347 345 314 315 302 329 312 346 317 9 355 40 39 353 343 70 75 73 102 82 95 108 107 111 124 128 124
329 327 326 326 324 317 321 333 76 12 327 308 301 315 316 351 2 1 9 357 341 325 354 328 5 331 17 49 55 9 37 65 94 92 94 94 98 102 111 120 122 125 122 123
327 322 320 318 317 339 302 286 320 320 321 282 291 292 303 334 345 348 356 357 1 1 17 4 342 5 27 33 54 43 76 85 93 100 105 81 105 105 119 118 119 118 117 119
326 322 318 309 300 328 0 343 326 320 318 284 295 282 320 343 330 334 351 341 354 29 40 344 10 8 26 62 88 89 91 97 80 95 112 113 117 117 113 116 119 116 117 120
329 327 314 299 345 338 312 305 307 302 270 296 281 294 299 330 331 323 335 351 5 1 55 358 1 348 44 107 113 112 124 118 113 108 116 123 121 121 123 122 122 120 121 124
340 337 329 262 295 311 314 131 297 248 236 241 257 266 279 325 333 315 349 8 25 23 328 332 43 42 37 58 114 112 130 131 134 125 119 126 126 128 128 128 128 127 129 128
3 351 334 319 333 16 339 311 213 193 256 226 258 271 277 317 350 296 6 317 341 41 304 68 21 5 347 23 131 139 137 133 130 128 133 132 131 134 132 130 129 129 129 128
336 324 323 329 10 4 355 284 330 280 263 309 286 309 294 306 310 337 348 352 0 34 329 54 40 316 355 48 145 145 150 140 134 131 129 130 129 128 129 131 132 131 130 129
340 321 290 313 305 28 20 358 5 310 327 337 329 318 324 314 350 345 17 25 339 308 39 64 60 358 2 71 151 144 144 146 137 136 133 131 129 130 129 131 133 134 132 131
2 337 307 217 319 174 215 234 246 284 286 323 331 309 350 336 4 15 13 319 27 41 37 20 35 353 342 97 162 159 143 151 147 149 148 145 144 141 134 129 137 139 136 134
279 280 266 272 311 296 275 290 290 293 308 314 312 289 285 306 9 15 359 14 54 65 344 263 315 319 258 166 173 170 154 159 157 161 161 156 150 144 137 132 134 137 137 136
233 237 275 288 302 304 314 301 288 313 326 329 339 2 3 7 32 29 37 339 4 289 290 310 335 143 160 170 166 163 160 159 167 168 166 160 157 152 141 137 135 133 137 140
236 256 259 266 280 273 282 291 299 330 333 353 42 4 10 303 356 39 68 253 231 254 306 347 23 110 156 173 174 163 166 169 167 163 158 154 154 151 146 144 136 124 129 131
Wind_Speed_850mb
62 65 63 60 66 73 77 30 10 35 53 11 12 10 29 42 29 32 22 17 10 9 5 11 7 10 10 12 10 12 13 6 9 22 10 34 27 34 11 22 11 4 8 8
59 60 59 58 62 64 72 44 14 24 33 9 12 14 31 29 12 30 12 13 9 14 8 9 9 8 15 33 17 8 12 2 4 9 8 6 34 33 17 13 9 13 10 8
54 56 57 55 59 61 57 21 9 16 17 30 11 26 19 25 35 26 29 11 18 13 8 8 12 15 12 38 9 12 11 8 10 13 4 13 35 18 38 14 8 12 14 14
52 52 55 52 53 56 38 16 7 7 10 20 28 24 15 36 23 12 23 7 17 27 11 14 8 6 19 17 12 4 3 5 14 19 14 29 31 36 24 33 21 10 17 22
49 53 55 47 47 55 26 15 15 12 29 26 25 18 10 30 38 20 21 18 44 40 20 18 37 28 9 10 17 7 1 5 5 5 11 36 25 26 19 13 16 9 25 6
49 50 50 50 41 46 23 26 25 20 19 12 18 12 30 44 40 26 35 40 41 33 31 27 38 47 31 30 18 7 7 2 4 5 15 29 18 28 26 10 9 18 14 14
44 43 49 49 41 34 43 38 33 14 12 14 21 43 41 45 44 41 59 59 26 24 64 78 44 39 34 28 29 22 5 4 1 8 18 7 3 13 18 18 10 15 14 42
43 39 43 45 42 38 41 38 30 10 13 31 35 32 45 54 56 36 44 56 58 75 34 7 5 4 6 15 23 25 12 6 7 8 6 12 11 11 13 37 4 14 24 30
41 43 38 43 43 38 39 40 36 30 15 6 48 41 44 29 27 17 29 64 54 20 5 5 4 2 5 5 6 17 15 17 10 5 9 6 6 10 18 12 3 14 27 43
46 44 37 40 46 40 36 36 35 33 19 41 21 28 22 22 17 13 28 27 19 17 6 4 4 1 4 4 2 5 5 4 5 5 8 7 14 6 6 10 12 31 40 64
45 40 39 41 45 36 33 36 24 24 28 72 41 35 42 51 45 12 42 23 3 6 8 6 6 5 5 4 4 8 7 5 6 5 9 6 19 5 9 7 40 49 45 54
44 42 39 37 38 37 37 38 32 42 43 78 81 57 40 42 50 43 14 18 23 8 5 4 7 5 6 7 3 9 9 5 6 10 6 12 19 18 29 38 64 42 70 68
47 43 42 36 34 35 37 40 35 40 28 56 20 31 52 34 31 31 15 15 35 19 41 5 5 6 7 7 8 5 9 9 8 6 19 23 42 57 57 59 71 70 78 84
43 46 45 42 34 36 35 34 27 22 22 11 26 59 36 25 41 45 34 41 47 49 42 4 3 3 9 8 13 13 8 9 11 21 22 44 51 52 70 77 80 76 73 83
42 44 44 41 33 32 35 26 16 14 18 10 36 65 34 53 55 33 21 33 33 25 7 4 5 5 8 3 6 11 13 6 6 7 22 36 33 46 65 76 74 79 86 83
42 44 40 35 30 28 17 6 5 14 23 14 8 27 38 65 45 32 28 37 22 10 7 6 12 8 8 7 7 27 33 47 19 16 55 63 56 54 58 85 74 76 81 77
41 43 34 31 20 14 4 2 12 20 26 9 10 12 18 49 39 27 32 31 23 19 12 15 12 24 18 7 8 15 46 60 61 56 64 47 42 49 67 81 77 73 71 64
44 39 27 17 10 8 2 5 12 19 12 8 5 10 20 31 21 18 30 26 19 30 13 21 9 15 15 11 16 33 49 49 37 32 57 68 64 67 69 69 68 69 64 57
39 28 13 7 2 5 6 10 12 9 6 6 5 5 8 27 16 14 20 15 8 16 7 5 9 8 11 9 19 31 14 39 56 60 64 63 65 64 60 55 50 56 52 47
30 13 4 3 8 26 12 1 2 3 5 7 6 6 7 17 12 10 21 11 3 7 6 13 8 6 24 23 15 21 51 69 68 72 51 60 59 56 51 47 47 49 47 44
27 19 8 19 15 8 4 3 1 3 5 8 9 9 7 7 5 6 12 4 6 6 8 6 6 8 13 20 14 30 43 45 28 48 52 47 50 49 49 48 44 42 40 40
27 18 17 15 7 3 3 3 4 1 5 8 7 14 12 9 6 3 8 6 5 5 9 6 5 6 34 11 24 37 37 23 44 46 47 47 45 44 44 42 41 40 39 38
9 4 6 4 2 10 5 7 3 5 12 8 21 11 10 7 7 3 5 9 2 6 7 3 4 19 26 10 24 28 26 41 48 46 48 48 46 41 41 43 39 39 38 35
4 5 9 3 4 1 4 4 5 10 14 30 27 12 4 8 10 2 5 4 5 6 6 4 3 20 15 6 25 30 33 42 45 47 47 46 45 43 38 35 35 36 37 34
3 2 5 3 6 12 12 15 15 14 21 25 18 8 5 3 4 5 5 7 6 3 2 4 23 17 3 20 32 35 39 43 44 48 46 46 43 40 39 31 30 29 34 34
3 6 5 7 7 9 8 9 18 8 24 17 3 5 6 5 2 6 6 3 2 4 4 20 16 2 16 30 35 35 35 41 40 41 39 40 38 38 37 34 28 28 28 30
5 7 11 18 20 20 21 13 11 18 15 3 3 7 2 5 5 4 2 0 4 4 10 18 9 11 23 34 38 35 29 33 37 37 39 38 38 35 36 36 31 26 29 29
Wind_Direction_850mb
351 347 347 352 352 349 353 350 320 356 357 49 326 339 312 313 296 321 302 270 294 267 282 287 260 258 254 278 154 170 200 197 214 240 195 198 198 176 135 184 204 137 131 256
350 355 356 356 353 357 346 333 284 3 2 22 339 310 314 302 306 319 313 300 337 333 287 304 263 287 288 301 236 191 177 135 225 190 90 164 191 179 176 118 107 189 127 247
348 352 353 356 352 354 353 342 327 337 340 345 322 322 320 325 321 314 325 286 301 327 315 229 285 302 318 331 306 166 159 161 182 279 0 112 180 167 198 150 110 151 188 159
347 353 349 348 351 350 7 356 320 321 314 328 314 306 286 323 331 332 310 273 328 324 302 297 254 325 321 302 271 169 165 222 212 254 291 160 168 170 150 186 185 155 172 166
349 349 346 343 348 350 8 350 322 298 301 294 310 307 314 318 326 320 307 303 309 311 281 284 290 286 268 284 358 216 214 288 334 306 242 165 173 188 172 143 152 111 161 150
348 348 354 347 346 354 346 326 321 293 296 304 311 308 315 312 319 299 289 297 302 295 289 279 279 273 275 274 286 292 308 341 317 210 187 133 142 180 194 147 136 128 155 194
348 353 350 348 340 345 337 330 309 290 297 300 302 303 309 312 309 294 294 299 297 277 299 295 277 250 246 242 250 238 255 109 197 189 153 125 126 140 212 130 66 108 95 156
347 347 346 347 343 341 332 332 322 279 289 301 302 318 315 309 305 295 291 301 298 302 299 279 274 159 187 230 231 231 149 155 242 139 100 103 81 151 152 147 64 110 130 135
338 342 335 341 338 334 327 330 335 296 290 266 315 307 304 304 314 303 300 311 319 323 284 296 282 168 192 234 230 167 154 222 274 81 81 96 183 150 117 95 116 143 147 137
335 337 338 341 338 332 325 325 328 305 269 292 293 301 298 293 292 282 299 325 322 343 339 301 305 328 342 294 326 229 246 125 124 86 97 72 27 24 131 125 203 147 160 142
336 339 336 336 334 334 329 321 319 313 288 293 281 288 288 289 287 283 299 319 348 312 347 334 325 304 13 45 347 291 60 77 34 46 81 103 9 347 158 161 109 127 117 120
332 333 330 329 334 332 321 313 323 318 287 279 300 299 290 280 290 278 280 277 289 274 312 298 299 315 315 223 32 24 46 49 83 48 58 345 20 76 103 129 121 119 124 126
330 330 325 326 325 324 318 314 320 321 292 306 300 315 336 331 318 312 269 307 314 300 315 239 245 300 322 10 28 75 58 36 68 114 25 59 65 81 95 116 114 124 129 127
327 329 327 326 318 314 308 305 322 329 303 293 293 320 332 336 332 323 313 299 323 317 308 304 342 325 350 16 60 66 3 37 81 89 89 70 60 83 100 103 113 114 117 127
330 330 327 326 318 310 307 301 300 268 353 289 294 316 340 348 346 347 345 314 315 302 329 312 346 317 9 355 40 39 353 343 70 75 73 102 82 95 108 107 111 124 128 124
329 327 326 326 324 317 321 333 76 12 327 308 301 315 316 351 2 1 9 357 341 325 354 328 5 331 17 49 55 9 37 65 94 92 94 94 98 102 111 120 122 125 122 123
327 322 320 318 317 339 302 286 320 320 321 282 291 292 303 334 345 348 356 357 1 1 17 4 342 5 27 33 54 43 76 85 93 100 105 81 105 105 119 118 119 118 117 119
326 322 318 309 300 328 0 343 326 320 318 284 295 282 320 343 330 334 351 341 354 29 40 344 10 8 26 62 88 89 91 97 80 95 112 113 117 117 113 116 119 116 117 120
329 327 314 299 345 338 312 305 307 302 270 296 281 294 299 330 331 323 335 351 5 1 55 358 1 348 44 107 113 112 124 118 113 108 116 123 121 121 123 122 122 120 121 124
340 337 329 262 295 311 314 131 297 248 236 241 257 266 279 325 333 315 349 8 25 23 328 332 43 42 37 58 114 112 130 131 134 125 119 126 126 128 128 128 128 127 129 128
3 351 334 319 333 16 339 311 213 193 256 226 258 271 277 317 350 296 6 317 341 41 304 68 21 5 347 23 131 139 137 133 130 128 133 132 131 134 132 130 129 129 129 128
336 324 323 329 10 4 355 284 330 280 263 309 286 309 294 306 310 337 348 352 0 34 329 54 40 316 355 48 145 145 150 140 134 131 129 130 129 128 129 131 132 131 130 129
340 321 290 313 305 28 20 358 5 310 327 337 329 318 324 314 350 345 17 25 339 308 39 64 60 358 2 71 151 144 144 146 137 136 133 131 129 130 129 131 133 134 132 131
2 337 307 217 319 174 215 234 246 284 286 323 331 309 350 336 4 15 13 319 27 41 37 20 35 353 342 97 162 159 143 151 147 149 148 145 144 141 134 129 137 139 136 134
279 280 266 272 311 296 275 290 290 293 308 314 312 289 285 306 9 15 359 14 54 65 344 263 315 319 258 166 173 170 154 159 157 161 161 156 150 144 137 132 134 137 137 136
233 237 275 288 302 304 314 301 288 313 326 329 339 2 3 7 32 29 37 339 4 289 290 310 335 143 160 170 166 163 160 159 167 168 166 160 157 152 141 137 135 133 137 140
236 256 259 266 280 273 282 291 299 330 333 353 42 4 10 303 356 39 68 253 231 254 306 347 23 110 156 173 174 163 166 169 167 163 158 154 154 151 146 144 136 124 129 131